Livermore, CA

9:48 PM PDT on June 27, 2017 (GMT -0700)
Livermore Municipal

Weather History for KLVK - January, 2015

Change the Weather History Date:

Wednesday, January 7, 2015

  Actual Average Record
Temperature  
Mean Temperature 54 °F 46 °F  
Max Temperature 70 °F 56 °F 70 °F (2015)
Min Temperature 38 °F 37 °F 20 °F (1973)
Degree Days  
Heating Degree Days 11 19  
Month to date heating degree days 130 133  
Since 1 July heating degree days 663 1164  
Cooling Degree Days 0 0  
Month to date cooling degree days 0 0  
Year to date cooling degree days 0 0  
Growing Degree Days 4 (Base 50)    
Moisture  
Dew Point 41 °F    
Average Humidity 64    
Maximum Humidity 92    
Minimum Humidity 36    
Precipitation  
Precipitation 0.00 in 0.13 in 1.06 in (1993)
Month to date precipitation 0.00 0.88  
Year to date precipitation 0.00 0.88  
Since 1 July precipitation 9.83  
Sea Level Pressure  
Sea Level Pressure 30.16 in    
Wind  
Wind Speed 3 mph (ENE)    
Max Wind Speed 13 mph    
Max Gust Speed 15 mph    
Visibility 9 miles    
Events      
T = Trace of Precipitation, MM = Missing Value Source: NWS Daily Summary

Daily Weather History Graph

Daily Weather History Graph

Search for Another Location

Airport or City:

Trip Planner

Search our weather history database for the weather conditions in past years. The results will help you decide how hot, cold, wet, or windy it might be!

Date:

Astronomy

Jan. 07, 2015 Rise Set
Actual Time 7:22 AM PST 5:04 PM PST
Civil Twilight 6:53 AM PST 5:33 PM PST
Nautical Twilight 6:21 AM PST 6:06 PM PST
Astronomical Twilight 5:49 AM PST 6:37 PM PST
Moon 7:50 PM PST (1/7) 8:41 AM PST (1/7)
Length of Visible Light 10h 39m
Length of Day
9h 41m
Waning Gibbous, 94% of the Moon is Illuminated
Jan 7
Waning Gibbous
Jan 13
Last Quarter
Jan 20
New
Jan 26
First Quarter
Feb 3
Full

Hourly Weather History & Observations

Time (PST) Temp. Dew Point Humidity Pressure Visibility Wind Dir Wind Speed Gust Speed Precip Events Conditions
12:53 AM 42.1 °F 37.0 °F 82% 30.20 in 6.0 mi Calm Calm - N/A   Haze
1:53 AM 42.1 °F 37.0 °F 82% 30.20 in 8.0 mi Calm Calm - N/A   Clear
2:53 AM 39.9 °F 36.0 °F 86% 30.20 in 7.0 mi Calm Calm - N/A   Clear
3:53 AM 39.0 °F 35.1 °F 86% 30.19 in 7.0 mi Calm Calm - N/A   Clear
4:53 AM 39.0 °F 35.1 °F 86% 30.18 in 6.0 mi Calm Calm - N/A   Clear
5:53 AM 37.9 °F 34.0 °F 86% 30.19 in 7.0 mi Calm Calm - N/A   Clear
6:53 AM 37.9 °F 36.0 °F 93% 30.20 in 7.0 mi Calm Calm - N/A   Clear
7:53 AM 39.0 °F 36.0 °F 89% 30.22 in 5.0 mi Calm Calm - N/A   Clear
8:53 AM 45.0 °F 39.0 °F 80% 30.24 in 8.0 mi Calm Calm - N/A   Clear
9:53 AM 51.1 °F 42.1 °F 71% 30.24 in 9.0 mi Calm Calm - N/A   Clear
10:53 AM 57.9 °F 44.1 °F 60% 30.23 in 8.0 mi West 3.5 mph - N/A   Clear
11:53 AM 64.9 °F 45.0 °F 48% 30.19 in 10.0 mi NE 9.2 mph - N/A   Clear
12:53 PM 68.0 °F 45.0 °F 43% 30.16 in 10.0 mi East 8.1 mph - N/A   Clear
1:53 PM 70.0 °F 46.0 °F 42% 30.14 in 10.0 mi ENE 10.4 mph - N/A   Clear
2:53 PM 70.0 °F 41.0 °F 35% 30.13 in 10.0 mi ENE 10.4 mph - N/A   Clear
3:53 PM 66.9 °F 45.0 °F 45% 30.12 in 10.0 mi East 8.1 mph - N/A   Clear
4:53 PM 62.1 °F 45.0 °F 53% 30.11 in 10.0 mi ENE 5.8 mph - N/A   Clear
5:53 PM 57.0 °F 45.0 °F 64% 30.11 in 10.0 mi ENE 5.8 mph - N/A   Clear
6:53 PM 55.0 °F 44.1 °F 67% 30.11 in 10.0 mi NNE 4.6 mph - N/A   Clear
7:53 PM 52.0 °F 43.0 °F 71% 30.11 in 10.0 mi South 3.5 mph - N/A   Clear
8:53 PM 48.9 °F 42.1 °F 77% 30.10 in 10.0 mi Calm Calm - N/A   Clear
9:53 PM 48.0 °F 41.0 °F 77% 30.10 in 10.0 mi Calm Calm - N/A   Clear
10:53 PM 46.9 °F 39.9 °F 77% 30.09 in 10.0 mi Calm Calm - N/A   Clear
11:53 PM 46.9 °F 39.9 °F 77% 30.09 in 10.0 mi Calm Calm - N/A   Clear